Back to catalog

STARLINK-30762

AliveCommunicationsVLEO
NORAD 58197·PAYLOAD·🇺🇸 United States

Launched Oct 30, 2023 from Cape Canaveral Space Force Station

Loading…

Next Passes (next 24 hours)

TLE

FreshSource: CelesTrak SupGP

Epoch: Sep 15, 2026, 02:35 UTC

1 58197C 23167Y   26258.10812500  .00062525  00000+0  22660-2 0  2584
2 58197  42.9996 153.9795 0001354 255.3907 349.2549 15.27528253    11

Track STARLINK-30762 in real time with AllMySat

Download on the App Store